{"data":{"norad_id":56844,"epoch":"2026-09-20T21:45:48.549024Z","epoch_age_seconds":82391,"freshness":"FRESH","line1":"1 56844U 23079X   26263.90681191  .00000891  00000+0  41901-4 0  9998","line2":"2 56844  43.0023  84.5091 0001346 264.7923  95.2775 15.27579774182746","mean_motion":15.27579774,"eccentricity":0.0001346,"inclination_deg":43.0023,"raan_deg":84.5091,"arg_perigee_deg":264.7923,"mean_anomaly_deg":95.2775,"bstar":4.1901e-5,"rev_number":18274,"period_min":94.266762660082,"perigee_km":482.12625702542,"apogee_km":483.97328850465,"semimajor_km":6861.186772765,"source":"CELESTRAK","updated_at":"2026-09-21T09:00:33.518764Z"}}